Location: Newark
(51.2625°N, 13.3939°E)
Time: 03:29:25
(UTC+00:00)

ISS - Visible Passes

Search period start: 18 October 2019 00:00
Search period end: 28 October 2019 00:00
Orbit: 411 x 421 km, 51.6° (Epoch: 17 October)

Date Brightness Start Highest point End Pass type
(mag) Time Alt. Az. Time Alt. Az. Time Alt. Az.
24 Oct -0.7 04:50:54 10° S 04:52:42 14° SE 04:54:30 10° ESE visible
26 Oct -1.7 04:49:01 10° SSW 04:51:55 27° SSE 04:54:49 10° E visible
27 Oct -1.3 04:01:03 10° S 04:03:30 19° SE 04:05:58 10° E visible
